User: anonymous   Login
Location: Unspecified
(0.0000°N, 0.0000°E)
Time: 12:54:04
(UTC+00:00)
Language:

DSP F18 - Orbit

View from above orbital plane
View from above orbital plane
View from above satellite
View from above satellite

Ground track
Ground track

The orbit is defined by the following mean orbital elements,

1 24737U          26146.16225249 +.00000000 +00000-0 +00000-0 0 00006
2 24737  14.4280   3.9730 0011413 323.4334 216.4431  0.99027795    07
Epoch (UTC): 26 May 2026 03:53:38
Eccentricity: 0.0011413
inclination: 14.4280°
perigee height: 36090 km
apogee height: 36188 km
right ascension of ascending node: 3.9730°
argument of perigee: 323.4334°
revolutions per day: 0.99027795
mean anomaly at epoch: 216.4431°

The dashed part of the orbit path shows where the satellite is in the earth's shadow,  

DLR